PHDTS EHGG-EHGG

Flight info

Callsign PHDTS
Flight time 0h 49m
Altitude 3000
Route EEL STAY1/0100 EEL
Aircraft DA42/L-SY/S

Departure

Time 2026-05-05 18:16
Airport Groningen Airport Eelde (EHGG)

Arrival

Time 2026-05-05 19:06
Airport Groningen Airport Eelde (EHGG)
Time Latitude Longitude Altitude Speed Heading
2026-05-05 17:57 53.12846 6.58742 13 ft 0 kts 40°
2026-05-05 18:08 53.12847 6.58744 13 ft 1 kts 57°
2026-05-05 18:08 53.12832 6.58776 13 ft 8 kts 155°
2026-05-05 18:08 53.12756 6.58783 13 ft 15 kts 211°
2026-05-05 18:08 53.12723 6.58672 13 ft 11 kts 309°
2026-05-05 18:09 53.12717 6.58540 14 ft 16 kts 232°
2026-05-05 18:09 53.12637 6.58371 14 ft 21 kts 232°
2026-05-05 18:09 53.12551 6.58188 14 ft 14 kts 233°
2026-05-05 18:09 53.12476 6.58028 15 ft 20 kts 232°
2026-05-05 18:10 53.12387 6.57859 14 ft 16 kts 204°
2026-05-05 18:10 53.12262 6.57821 17 ft 20 kts 189°
2026-05-05 18:10 53.12123 6.57757 18 ft 23 kts 232°
2026-05-05 18:10 53.12017 6.57529 17 ft 27 kts 231°
2026-05-05 18:11 53.11901 6.57282 17 ft 27 kts 232°
2026-05-05 18:11 53.11783 6.57033 17 ft 28 kts 232°
2026-05-05 18:11 53.11700 6.56857 17 ft 28 kts 231°
2026-05-05 18:11 53.11591 6.56804 17 ft 10 kts 159°
2026-05-05 18:12 53.11584 6.56819 17 ft 0 kts 99°
2026-05-05 18:14 53.11547 6.56870 18 ft 12 kts 141°
2026-05-05 18:15 53.11514 6.56949 19 ft 5 kts 50°
2026-05-05 18:15 53.11593 6.57115 19 ft 47 kts 51°
2026-05-05 18:15 53.11858 6.57717 131 ft 69 kts 51°
2026-05-05 18:15 53.12145 6.58458 349 ft 78 kts 49°
2026-05-05 18:16 53.12390 6.59188 560 ft 66 kts 51°
2026-05-05 18:16 53.12614 6.59906 529 ft 71 kts 47°
2026-05-05 18:16 53.12886 6.60632 518 ft 79 kts 44°
2026-05-05 18:16 53.13173 6.61400 810 ft 76 kts 51°
2026-05-05 18:17 53.13444 6.62164 1100 ft 77 kts 53°
2026-05-05 18:17 53.13692 6.62994 1332 ft 89 kts 72°
2026-05-05 18:17 53.13665 6.64058 1670 ft 92 kts 83°
2026-05-05 18:17 53.13615 6.65102 2023 ft 89 kts 83°
2026-05-05 18:18 53.13586 6.66276 2015 ft 111 kts 82°
2026-05-05 18:18 53.13591 6.67621 1927 ft 119 kts 82°
2026-05-05 18:18 53.13597 6.68962 2021 ft 115 kts 84°
2026-05-05 18:18 53.13592 6.70310 2021 ft 119 kts 83°
2026-05-05 18:19 53.13580 6.71708 2018 ft 122 kts 83°
2026-05-05 18:19 53.13573 6.73125 1995 ft 123 kts 84°
2026-05-05 18:19 53.13565 6.74554 1958 ft 124 kts 84°
2026-05-05 18:19 53.13581 6.75979 1995 ft 121 kts 84°
2026-05-05 18:20 53.13585 6.77382 2006 ft 121 kts 84°
2026-05-05 18:20 53.13593 6.78788 2003 ft 122 kts 82°
2026-05-05 18:20 53.13618 6.80197 1985 ft 122 kts 80°
2026-05-05 18:20 53.13661 6.81600 1967 ft 121 kts 82°
2026-05-05 18:21 53.13664 6.82996 1964 ft 121 kts 83°
2026-05-05 18:21 53.13669 6.84385 1986 ft 118 kts 82°
2026-05-05 18:21 53.13694 6.85741 2014 ft 117 kts 83°
2026-05-05 18:21 53.13868 6.87045 1959 ft 117 kts 49°
2026-05-05 18:22 53.14603 6.87481 1928 ft 119 kts 353°
2026-05-05 18:22 53.15334 6.86854 1954 ft 118 kts 334°
2026-05-05 18:22 53.16000 6.86116 2003 ft 107 kts 332°
2026-05-05 18:22 53.16559 6.85376 1939 ft 100 kts 333°
2026-05-05 18:23 53.17096 6.84647 1951 ft 97 kts 335°
2026-05-05 18:23 53.17624 6.83982 1991 ft 94 kts 334°
2026-05-05 18:23 53.18137 6.83323 2002 ft 93 kts 336°
2026-05-05 18:23 53.18637 6.82625 1985 ft 93 kts 334°
2026-05-05 18:24 53.19146 6.81974 1979 ft 92 kts 336°
2026-05-05 18:24 53.19645 6.81315 1970 ft 94 kts 332°
2026-05-05 18:24 53.19915 6.80275 1977 ft 108 kts 285°
2026-05-05 18:24 53.19772 6.79012 2025 ft 113 kts 264°
2026-05-05 18:25 53.19554 6.77704 2003 ft 120 kts 264°
2026-05-05 18:25 53.19408 6.76825 2029 ft 120 kts 265°
2026-05-05 18:25 53.19094 6.75045 2042 ft 118 kts 262°
2026-05-05 18:25 53.18885 6.73713 1986 ft 120 kts 265°
2026-05-05 18:26 53.18623 6.72405 1989 ft 121 kts 250°
2026-05-05 18:26 53.18143 6.71236 1984 ft 121 kts 245°
2026-05-05 18:26 53.17647 6.70018 1743 ft 129 kts 239°
2026-05-05 18:26 53.17140 6.68816 1583 ft 126 kts 240°
2026-05-05 18:27 53.16570 6.67695 1383 ft 128 kts 236°
2026-05-05 18:27 53.16031 6.66534 1221 ft 126 kts 240°
2026-05-05 18:27 53.15498 6.65361 1052 ft 127 kts 239°
2026-05-05 18:27 53.14958 6.64230 896 ft 122 kts 237°
2026-05-05 18:28 53.13606 6.62625 761 ft 119 kts 196°
2026-05-05 18:28 53.12815 6.62286 792 ft 116 kts 193°
2026-05-05 18:28 53.12016 6.61978 747 ft 119 kts 197°
2026-05-05 18:29 53.11341 6.61306 780 ft 111 kts 233°
2026-05-05 18:29 53.10859 6.60302 749 ft 113 kts 240°
2026-05-05 18:29 53.10363 6.59276 728 ft 115 kts 237°
2026-05-05 18:29 53.09886 6.58207 692 ft 116 kts 239°
2026-05-05 18:30 53.09403 6.57145 692 ft 113 kts 238°
2026-05-05 18:30 53.08922 6.56137 719 ft 111 kts 239°
2026-05-05 18:30 53.08640 6.55022 644 ft 101 kts 281°
2026-05-05 18:30 53.08874 6.54025 506 ft 93 kts 315°
2026-05-05 18:31 53.09395 6.53560 445 ft 83 kts
2026-05-05 18:31 53.09935 6.53727 420 ft 75 kts 31°
2026-05-05 18:31 53.10300 6.54355 358 ft 77 kts 52°
2026-05-05 18:31 53.10624 6.55073 238 ft 78 kts 45°
2026-05-05 18:32 53.10950 6.55738 285 ft 73 kts 51°
2026-05-05 18:32 53.11270 6.56454 329 ft 76 kts 51°
2026-05-05 18:32 53.11593 6.57162 410 ft 76 kts 51°
2026-05-05 18:32 53.11926 6.57860 575 ft 79 kts 45°
2026-05-05 18:33 53.12235 6.58645 845 ft 83 kts 51°
2026-05-05 18:33 53.12534 6.59440 1178 ft 80 kts 52°
2026-05-05 18:33 53.12830 6.60210 1479 ft 79 kts 51°
2026-05-05 18:33 53.13127 6.60979 1771 ft 79 kts 52°
2026-05-05 18:34 53.13430 6.61761 1999 ft 87 kts 53°
2026-05-05 18:34 53.13828 6.62723 2008 ft 109 kts 50°
2026-05-05 18:34 53.14280 6.63782 1980 ft 114 kts 49°
2026-05-05 18:34 53.14744 6.64804 1991 ft 108 kts 51°
2026-05-05 18:35 53.15190 6.65787 1982 ft 105 kts 50°
2026-05-05 18:35 53.15570 6.66814 1957 ft 110 kts 72°
2026-05-05 18:35 53.15365 6.68032 1996 ft 121 kts 123°
2026-05-05 18:35 53.14579 6.68643 1966 ft 136 kts 173°
2026-05-05 18:36 53.13686 6.68082 2047 ft 139 kts 222°
2026-05-05 18:36 53.12956 6.66973 1995 ft 146 kts 223°
2026-05-05 18:36 53.12173 6.65849 1987 ft 147 kts 221°
2026-05-05 18:36 53.11397 6.64729 2009 ft 148 kts 221°
2026-05-05 18:37 53.10615 6.63658 2043 ft 147 kts 220°
2026-05-05 18:37 53.09842 6.62506 1998 ft 151 kts 223°
2026-05-05 18:37 53.09061 6.61368 2017 ft 150 kts 221°
2026-05-05 18:37 53.08272 6.60229 2010 ft 149 kts 221°
2026-05-05 18:38 53.07449 6.59151 1995 ft 150 kts 219°
2026-05-05 18:38 53.06636 6.58039 1972 ft 153 kts 222°
2026-05-05 18:38 53.05854 6.56878 2008 ft 151 kts 220°
2026-05-05 18:38 53.05075 6.55761 2045 ft 149 kts 223°
2026-05-05 18:39 53.04301 6.54560 1979 ft 154 kts 223°
2026-05-05 18:39 53.03515 6.53356 1994 ft 153 kts 222°
2026-05-05 18:39 53.02745 6.52138 1987 ft 153 kts 224°
2026-05-05 18:39 53.01962 6.50971 1993 ft 151 kts 223°
2026-05-05 18:40 53.01203 6.49774 2016 ft 150 kts 224°
2026-05-05 18:40 53.00448 6.48569 2014 ft 150 kts 223°
2026-05-05 18:40 52.99698 6.47371 1958 ft 152 kts 231°
2026-05-05 18:40 52.99276 6.45794 1892 ft 148 kts 267°
2026-05-05 18:41 52.99370 6.44182 1880 ft 137 kts 297°
2026-05-05 18:41 52.99933 6.43063 1952 ft 121 kts 329°
2026-05-05 18:41 53.00608 6.42317 2007 ft 115 kts 332°
2026-05-05 18:41 53.01283 6.41581 2001 ft 113 kts 334°
2026-05-05 18:42 53.01974 6.41028 2001 ft 107 kts 360°
2026-05-05 18:42 53.02653 6.41289 2064 ft 100 kts 31°
2026-05-05 18:42 53.03263 6.41821 2051 ft 101 kts 25°
2026-05-05 18:42 53.03876 6.42302 2052 ft 94 kts 29°
2026-05-05 18:43 53.04417 6.42886 1960 ft 97 kts 46°
2026-05-05 18:43 53.04886 6.43645 1917 ft 92 kts 50°
2026-05-05 18:43 53.05318 6.44380 1801 ft 89 kts 44°
2026-05-05 18:43 53.05770 6.45102 1666 ft 88 kts 41°
2026-05-05 18:44 53.06181 6.45824 1533 ft 85 kts 47°
2026-05-05 18:44 53.06548 6.46595 1427 ft 83 kts 47°
2026-05-05 18:44 53.06920 6.47321 1300 ft 82 kts 47°
2026-05-05 18:44 53.07280 6.48051 1220 ft 82 kts 47°
2026-05-05 18:45 53.07633 6.48798 1128 ft 82 kts 49°
2026-05-05 18:45 53.07994 6.49561 1024 ft 84 kts 46°
2026-05-05 18:45 53.08358 6.50321 928 ft 84 kts 46°
2026-05-05 18:45 53.08737 6.51109 759 ft 88 kts 45°
2026-05-05 18:46 53.09111 6.51878 650 ft 85 kts 46°
2026-05-05 18:46 53.09485 6.52652 524 ft 86 kts 50°
2026-05-05 18:46 53.09852 6.53398 492 ft 76 kts 46°
2026-05-05 18:46 53.10148 6.54077 437 ft 71 kts 49°
2026-05-05 18:47 53.10466 6.54769 319 ft 75 kts 46°
2026-05-05 18:47 53.10802 6.55460 211 ft 76 kts 45°
2026-05-05 18:47 53.11124 6.56135 95 ft 76 kts 47°
2026-05-05 18:47 53.11439 6.56782 21 ft 58 kts 47°
2026-05-05 18:48 53.11655 6.57242 19 ft 62 kts 52°
2026-05-05 18:48 53.11937 6.57922 160 ft 77 kts 54°
2026-05-05 18:48 53.12250 6.58683 417 ft 77 kts 47°
2026-05-05 18:48 53.12562 6.59375 550 ft 72 kts 52°
2026-05-05 18:49 53.12895 6.60067 528 ft 79 kts 55°
2026-05-05 18:49 53.13131 6.60536 569 ft 79 kts 51°
2026-05-05 18:49 53.13562 6.61467 928 ft 77 kts 50°
2026-05-05 18:49 53.13750 6.61987 1167 ft 78 kts 52°
2026-05-05 18:50 53.14029 6.62759 1464 ft 78 kts 52°
2026-05-05 18:50 53.14316 6.63516 1770 ft 77 kts 50°
2026-05-05 18:50 53.14607 6.64277 2052 ft 80 kts 52°
2026-05-05 18:50 53.14767 6.65335 2032 ft 114 kts 98°
2026-05-05 18:51 53.14217 6.66373 2110 ft 131 kts 147°
2026-05-05 18:51 53.13274 6.66413 2088 ft 143 kts 195°
2026-05-05 18:51 53.12408 6.65505 2000 ft 151 kts 223°
2026-05-05 18:51 53.11630 6.64321 1991 ft 152 kts 225°
2026-05-05 18:52 53.10867 6.63101 1986 ft 150 kts 221°
2026-05-05 18:52 53.10064 6.61978 1963 ft 151 kts 220°
2026-05-05 18:52 53.09237 6.60904 1986 ft 149 kts 218°
2026-05-05 18:52 53.08437 6.59798 1967 ft 151 kts 221°
2026-05-05 18:53 53.07626 6.58673 1944 ft 151 kts 222°
2026-05-05 18:53 53.06838 6.57537 1985 ft 149 kts 222°
2026-05-05 18:53 53.06073 6.56377 1991 ft 150 kts 223°
2026-05-05 18:53 53.05306 6.55199 1985 ft 151 kts 223°
2026-05-05 18:54 53.04521 6.54041 1996 ft 150 kts 220°
2026-05-05 18:54 53.03736 6.52886 1988 ft 152 kts 220°
2026-05-05 18:54 53.02932 6.51753 1982 ft 152 kts 220°
2026-05-05 18:54 53.02130 6.50619 1989 ft 151 kts 220°
2026-05-05 18:55 53.01310 6.49535 2025 ft 148 kts 217°
2026-05-05 18:55 53.00521 6.48430 2032 ft 149 kts 223°
2026-05-05 18:55 52.99776 6.47253 2007 ft 142 kts 224°
2026-05-05 18:55 52.99092 6.46144 1980 ft 134 kts 220°
2026-05-05 18:56 52.98400 6.45104 1977 ft 133 kts 218°
2026-05-05 18:56 52.97703 6.44120 1983 ft 130 kts 216°
2026-05-05 18:56 52.96992 6.43188 1972 ft 129 kts 216°
2026-05-05 18:56 52.96398 6.42101 1953 ft 126 kts 248°
2026-05-05 18:57 52.96265 6.40759 1988 ft 113 kts 283°
2026-05-05 18:57 52.96540 6.39611 1994 ft 105 kts 313°
2026-05-05 18:57 52.97081 6.38863 1997 ft 99 kts 333°
2026-05-05 18:57 52.97658 6.38222 2000 ft 101 kts 331°
2026-05-05 18:58 52.98231 6.37523 1975 ft 102 kts 329°
2026-05-05 18:58 52.98794 6.36831 1996 ft 101 kts 327°
2026-05-05 18:58 52.99342 6.36125 1995 ft 99 kts 329°
2026-05-05 18:58 52.99889 6.35415 1967 ft 101 kts 331°
2026-05-05 18:59 53.00515 6.35191 1991 ft 88 kts 13°
2026-05-05 18:59 53.01014 6.35697 1990 ft 86 kts 41°
2026-05-05 18:59 53.01453 6.36370 2000 ft 87 kts 38°
2026-05-05 18:59 53.01926 6.37025 1953 ft 91 kts 35°
2026-05-05 19:00 53.02372 6.37767 1944 ft 91 kts 46°
2026-05-05 19:00 53.02756 6.38567 1988 ft 86 kts 47°
2026-05-05 19:00 53.03118 6.39342 2005 ft 85 kts 45°
2026-05-05 19:00 53.03490 6.40110 2018 ft 86 kts 47°
2026-05-05 19:01 53.03866 6.40878 2029 ft 86 kts 46°
2026-05-05 19:01 53.04256 6.41652 2005 ft 89 kts 46°
2026-05-05 19:01 53.04663 6.42445 2016 ft 91 kts 46°
2026-05-05 19:01 53.05041 6.43269 1938 ft 90 kts 50°
2026-05-05 19:02 53.05389 6.44147 1823 ft 90 kts 52°
2026-05-05 19:02 53.05746 6.44976 1692 ft 87 kts 45°
2026-05-05 19:02 53.06134 6.45734 1565 ft 85 kts 44°
2026-05-05 19:02 53.06510 6.46496 1431 ft 84 kts 46°
2026-05-05 19:03 53.06860 6.47259 1339 ft 84 kts 49°
2026-05-05 19:03 53.07207 6.48027 1251 ft 82 kts 45°
2026-05-05 19:03 53.07568 6.48767 1119 ft 85 kts 46°
2026-05-05 19:03 53.07926 6.49529 1045 ft 82 kts 44°
2026-05-05 19:04 53.08296 6.50267 924 ft 84 kts 43°
2026-05-05 19:04 53.08673 6.51030 823 ft 86 kts 45°
2026-05-05 19:04 53.09026 6.51815 700 ft 83 kts 45°
2026-05-05 19:04 53.09397 6.52557 560 ft 83 kts 46°
2026-05-05 19:05 53.09758 6.53307 478 ft 83 kts 46°
2026-05-05 19:05 53.10118 6.54071 390 ft 81 kts 43°
2026-05-05 19:05 53.10468 6.54780 287 ft 80 kts 41°
2026-05-05 19:05 53.10808 6.55516 195 ft 79 kts 42°
2026-05-05 19:06 53.11179 6.56239 63 ft 83 kts 45°
2026-05-05 19:06 53.11480 6.56857 19 ft 52 kts 53°
2026-05-05 19:06 53.11654 6.57243 19 ft 34 kts 52°
2026-05-05 19:06 53.11776 6.57501 18 ft 23 kts 51°
2026-05-05 19:07 53.11860 6.57681 18 ft 13 kts 54°
2026-05-05 19:07 53.11929 6.57735 19 ft 11 kts
2026-05-05 19:07 53.11958 6.57742 18 ft 0 kts
2026-05-05 19:07 53.11960 6.57743 18 ft 1 kts
2026-05-05 19:08 53.12007 6.57756 17 ft 12 kts
2026-05-05 19:08 53.12104 6.57781 18 ft 15 kts
2026-05-05 19:08 53.12212 6.57808 18 ft 17 kts
2026-05-05 19:08 53.12334 6.57840 15 ft 18 kts
2026-05-05 19:09 53.12429 6.57926 14 ft 16 kts 54°
2026-05-05 19:09 53.12496 6.58071 15 ft 16 kts 52°
2026-05-05 19:09 53.12562 6.58211 14 ft 15 kts 52°
2026-05-05 19:09 53.12626 6.58347 14 ft 15 kts 51°
2026-05-05 19:10 53.12691 6.58485 14 ft 16 kts 52°
2026-05-05 19:10 53.12734 6.58640 13 ft 14 kts 112°
2026-05-05 19:10 53.12735 6.58750 13 ft 10 kts 39°
2026-05-05 19:10 53.12786 6.58792 13 ft 7 kts 356°
2026-05-05 19:11 53.12817 6.58796 13 ft 2 kts 34°
2026-05-05 19:11 53.12819 6.58799 13 ft 0 kts 37°